Total_Precipitation_Accumulation
0.00 0.00 0.00 0.00 0.00 0.00 0.00 0.00 0.00 0.00 0.00 0.02 0.04 0.05 0.08 0.12 0.24 0.48 0.51 0.29 0.14 0.27
0.00 0.00 0.00 0.00 0.00 0.00 0.00 0.00 0.00 0.00 0.01 0.01 0.00 0.06 0.12 0.13 0.20 0.28 0.31 0.16 0.25 0.16
0.00 0.00 0.00 0.00 0.00 0.00 0.00 0.00 0.01 0.00 0.00 0.00 0.00 0.06 0.16 0.14 0.20 0.15 0.15 0.10 0.21 0.08
0.00 0.00 0.00 0.00 0.00 0.00 0.00 0.00 0.00 0.01 0.01 0.00 0.00 0.05 0.12 0.17 0.32 0.20 0.15 0.20 0.22 0.13
0.00 0.00 0.00 0.00 0.00 0.00 0.00 0.00 0.01 0.01 0.01 0.00 0.04 0.08 0.13 0.17 0.24 0.19 0.16 0.16 0.15 0.11
0.00 0.00 0.00 0.00 0.00 0.00 0.00 0.00 0.00 0.00 0.00 0.02 0.03 0.03 0.07 0.10 0.19 0.17 0.13 0.12 0.10 0.06
0.00 0.00 0.00 0.00 0.00 0.00 0.00 0.00 0.00 0.00 0.00 0.00 0.00 0.03 0.08 0.12 0.15 0.10 0.15 0.13 0.03 0.07
0.00 0.00 0.00 0.00 0.00 0.00 0.00 0.00 0.00 0.00 0.01 0.04 0.09 0.10 0.13 0.11 0.09 0.20 0.15 0.13 0.06 0.05
0.00 0.00 0.00 0.00 0.00 0.01 0.01 0.01 0.03 0.08 0.13 0.17 0.16 0.14 0.11 0.04 0.07 0.20 0.15 0.14 0.04 0.04
0.00 0.00 0.00 0.00 0.04 0.09 0.09 0.12 0.18 0.18 0.14 0.12 0.16 0.24 0.06 0.00 0.02 0.08 0.16 0.09 0.05 0.07
0.00 0.00 0.00 0.05 0.12 0.16 0.32 0.47 0.48 0.43 0.19 0.13 0.16 0.03 0.00 0.00 0.01 0.04 0.08 0.13 0.09 0.05
0.00 0.00 0.04 0.13 0.34 0.80 0.94 0.64 0.37 0.33 0.20 0.05 0.01 0.00 0.02 0.10 0.17 0.26 0.34 0.22 0.08 0.03
0.06 0.20 0.52 0.88 0.96 0.68 0.50 0.32 0.35 0.34 0.12 0.03 0.01 0.04 0.24 0.19 0.23 0.29 0.12 0.10 0.09 0.09
0.24 0.53 0.52 0.36 0.44 0.50 0.37 0.40 0.46 0.34 0.11 0.06 0.03 0.08 0.25 0.33 0.35 0.27 0.17 0.11 0.13 0.13